Location: Shannon
(40.5500°S, 175.4167°E)
Time: 20:13:47
(UTC+00:00)

Spot 2 - Pass Details

Date: 17 November 2025
Orbit: 559 x 740 km, 98.7° (Epoch: 14 December)

Event Time Altitude Azimuth Distance (km) Brightness Sun altitude
Rises 15:46:04 0° 171° (S) 3,044 8.4 -11.0°
Reaches altitude 10° 15:48:24 10° 175° (S) 2,093 7.4 -10.7°
Maximum altitude 15:52:51 56° 252° (WSW) 756 4.3 -10.0°
Drops below altitude 10° 15:57:01 10° 330° (NNW) 1,958 6.1 -9.4°
Enters shadow 15:57:05 10° 330° (NNW) 1,985 6.1 -9.4°
